Time,TemperatureF,DewpointF,PressureIn,WindDirection,WindDirectionDegrees,WindSpeedMPH,WindSpeedGustMPH,Humidity,HourlyPrecipIn,Conditions,Clouds,dailyrainin,SoftwareType,DateUTC
2013-03-18 00:02:00,33.7,28.5,29.88,ENE,59,11.5,12.0,81,0.00,-RA,,0.01,WeatherDisplay:10.37,2013-03-18 05:02:00,
2013-03-18 00:07:00,33.5,28.3,29.88,East,101,12.9,12.9,81,0.01,-RA,,0.01,WeatherDisplay:10.37,2013-03-18 05:07:00,
2013-03-18 00:12:00,33.4,28.5,29.88,NE,42,19.8,19.8,82,0.01,-RA,,0.01,WeatherDisplay:10.37,2013-03-18 05:12:00,
2013-03-18 00:17:00,33.2,28.3,29.88,ENE,59,11.4,13.8,82,0.01,-RA,,0.01,WeatherDisplay:10.37,2013-03-18 05:17:00,
2013-03-18 00:22:00,33.2,28.6,29.88,ENE,57,10.2,10.5,83,0.01,-RA,,0.01,WeatherDisplay:10.37,2013-03-18 05:22:00,
2013-03-18 00:27:00,33.1,28.5,29.87,NE,55,9.5,9.5,83,0.01,-RA,,0.01,WeatherDisplay:10.37,2013-03-18 05:27:00,
2013-03-18 00:32:00,32.9,28.6,29.86,East,84,7.8,15.0,84,0.01,OVC,,0.01,WeatherDisplay:10.37,2013-03-18 05:32:00,
2013-03-18 00:37:00,32.9,28.6,29.86,ESE,107,4.6,13.8,84,0.01,OVC,,0.01,WeatherDisplay:10.37,2013-03-18 05:37:00,
2013-03-18 00:42:00,32.8,28.5,29.87,NE,49,9.7,15.0,84,0.01,OVC,,0.01,WeatherDisplay:10.37,2013-03-18 05:42:00,
2013-03-18 00:47:00,32.8,28.8,29.84,East,92,13.5,15.0,85,0.01,OVC,,0.01,WeatherDisplay:10.37,2013-03-18 05:47:00,
2013-03-18 00:52:00,32.7,28.7,29.83,East,84,21.0,21.0,85,0.01,-RA,,0.01,WeatherDisplay:10.37,2013-03-18 05:52:00,
2013-03-18 00:57:00,32.7,28.7,29.82,ENE,61,15.0,15.0,85,0.01,-RA,,0.01,WeatherDisplay:10.37,2013-03-18 05:57:00,
2013-03-18 01:02:00,32.7,29.0,29.82,ENE,69,11.5,15.0,86,0.00,-RA,,0.01,WeatherDisplay:10.37,2013-03-18 06:02:00,
2013-03-18 01:07:00,32.7,29.0,29.83,ENE,68,3.3,4.6,86,0.00,-RA,,0.01,WeatherDisplay:10.37,2013-03-18 06:07:00,
2013-03-18 01:12:00,32.7,29.0,29.85,NE,52,9.7,13.8,86,0.00,-DZ,,0.01,WeatherDisplay:10.37,2013-03-18 06:12:00,
2013-03-18 01:17:00,32.7,29.0,29.83,ENE,69,9.8,10.4,86,0.00,-DZ,,0.01,WeatherDisplay:10.37,2013-03-18 06:17:00,
2013-03-18 01:23:00,32.5,28.8,29.83,NE,55,9.4,10.4,86,0.00,-DZ,,0.01,WeatherDisplay:10.37,2013-03-18 06:23:00,
2013-03-18 01:28:00,32.5,28.8,29.84,ENE,66,10.4,15.0,86,0.00,-DZ,,0.01,WeatherDisplay:10.37,2013-03-18 06:28:00,
2013-03-18 01:33:00,32.5,28.8,29.84,ENE,71,11.2,13.8,86,0.00,-DZ,,0.01,WeatherDisplay:10.37,2013-03-18 06:33:00,
2013-03-18 01:38:00,32.5,28.8,29.84,NE,55,9.1,10.4,86,0.00,-DZ,,0.01,WeatherDisplay:10.37,2013-03-18 06:38:00,
2013-03-18 01:43:00,32.5,28.8,29.83,ENE,63,12.5,15.0,86,0.00,-DZ,,0.01,WeatherDisplay:10.37,2013-03-18 06:43:00,
2013-03-18 01:48:00,32.5,28.8,29.83,ENE,67,15.9,15.9,86,0.00,-DZ,,0.01,WeatherDisplay:10.37,2013-03-18 06:48:00,
2013-03-18 01:53:00,32.5,28.8,29.83,ENE,57,10.7,16.1,86,0.00,OVC,,0.01,WeatherDisplay:10.37,2013-03-18 06:53:00,
2013-03-18 01:58:00,32.5,28.8,29.83,ENE,63,9.4,11.5,86,0.00,OVC,,0.01,WeatherDisplay:10.37,2013-03-18 06:58:00,
2013-03-18 02:03:00,32.5,28.8,29.83,East,84,6.2,6.2,86,0.00,OVC,,0.01,WeatherDisplay:10.37,2013-03-18 07:03:00,
2013-03-18 02:08:00,32.5,28.8,29.82,ENE,57,16.2,23.0,86,0.00,OVC,,0.01,WeatherDisplay:10.37,2013-03-18 07:08:00,
2013-03-18 02:13:00,32.5,28.8,29.82,NE,50,7.1,9.0,86,0.00,-RA,,0.01,WeatherDisplay:10.37,2013-03-18 07:13:00,
2013-03-18 02:18:00,32.5,28.8,29.81,NE,53,12.3,15.0,86,0.00,-RA,,0.01,WeatherDisplay:10.37,2013-03-18 07:18:00,
2013-03-18 02:23:00,32.4,29.0,29.81,ENE,64,12.6,13.8,87,0.00,-RA,,0.01,WeatherDisplay:10.37,2013-03-18 07:23:00,
2013-03-18 02:28:00,32.4,29.0,29.80,North,5,6.7,8.1,87,0.01,-RA,,0.02,WeatherDisplay:10.37,2013-03-18 07:28:00,
2013-03-18 02:33:00,32.4,29.0,29.80,ENE,61,10.4,10.5,87,0.01,RA,,0.02,WeatherDisplay:10.37,2013-03-18 07:33:00,
2013-03-18 02:38:00,32.4,29.0,29.80,ENE,63,7.8,7.8,87,0.01,OVC,,0.02,WeatherDisplay:10.37,2013-03-18 07:38:00,
2013-03-18 02:43:00,32.4,29.0,29.79,NE,44,8.5,13.5,87,0.01,OVC,,0.02,WeatherDisplay:10.37,2013-03-18 07:43:00,
2013-03-18 02:48:00,32.4,29.2,29.79,ENE,61,11.9,11.9,88,0.01,OVC,,0.02,WeatherDisplay:10.37,2013-03-18 07:48:00,
2013-03-18 02:53:00,32.2,29.0,29.79,ENE,58,14.1,15.0,88,0.01,-RA,,0.02,WeatherDisplay:10.37,2013-03-18 07:53:00,
2013-03-18 02:58:00,32.2,29.0,29.78,NE,35,5.7,13.5,88,0.01,-RA,,0.02,WeatherDisplay:10.37,2013-03-18 07:58:00,
2013-03-18 03:03:00,32.2,29.0,29.78,East,86,9.1,15.0,88,0.01,-RA,,0.02,WeatherDisplay:10.37,2013-03-18 08:03:00,
2013-03-18 03:08:00,32.4,29.2,29.77,East,98,11.0,11.5,88,0.01,-RA,,0.02,WeatherDisplay:10.37,2013-03-18 08:08:00,
2013-03-18 03:13:00,32.4,29.2,29.76,NE,46,8.5,25.5,88,0.01,-RA,,0.02,WeatherDisplay:10.37,2013-03-18 08:13:00,
2013-03-18 03:18:00,32.4,29.2,29.75,ENE,64,10.2,10.2,88,0.01,-RA,,0.02,WeatherDisplay:10.37,2013-03-18 08:18:00,
2013-03-18 03:23:00,32.4,29.2,29.75,NE,50,10.2,10.2,88,0.01,-RA,,0.02,WeatherDisplay:10.37,2013-03-18 08:23:00,
2013-03-18 03:28:00,32.4,29.5,29.75,ENE,69,9.2,10.4,89,0.01,-RA,,0.03,WeatherDisplay:10.37,2013-03-18 08:28:00,
2013-03-18 03:33:00,32.2,29.3,29.74,ENE,78,11.9,15.0,89,0.01,-RA,,0.03,WeatherDisplay:10.37,2013-03-18 08:33:00,
2013-03-18 03:38:00,32.2,29.3,29.73,NE,56,8.1,9.2,89,0.01,-RA,,0.03,WeatherDisplay:10.37,2013-03-18 08:38:00,
2013-03-18 03:43:00,32.2,29.3,29.72,ENE,65,9.7,13.8,89,0.01,-RA,,0.03,WeatherDisplay:10.37,2013-03-18 08:43:00,
2013-03-18 03:48:00,32.2,29.3,29.72,ESE,121,12.0,13.8,89,0.01,-RA,,0.03,WeatherDisplay:10.37,2013-03-18 08:48:00,
2013-03-18 03:53:00,32.2,29.3,29.72,NE,55,12.7,15.0,89,0.01,OVC,,0.03,WeatherDisplay:10.37,2013-03-18 08:53:00,
2013-03-18 03:58:00,32.2,29.3,29.71,ENE,69,10.5,10.5,89,0.01,OVC,,0.03,WeatherDisplay:10.37,2013-03-18 08:58:00,
2013-03-18 04:03:00,32.4,29.5,29.71,ENE,64,5.4,10.4,89,0.01,OVC,,0.03,WeatherDisplay:10.37,2013-03-18 09:03:00,
2013-03-18 04:08:00,32.4,29.5,29.71,NE,50,13.5,13.8,89,0.01,OVC,,0.03,WeatherDisplay:10.37,2013-03-18 09:08:00,
2013-03-18 04:13:00,32.4,29.5,29.70,ENE,74,7.9,13.8,89,0.01,OVC,,0.03,WeatherDisplay:10.37,2013-03-18 09:13:00,
2013-03-18 04:19:00,32.4,29.5,29.71,ENE,67,9.5,9.5,89,0.01,OVC,,0.03,WeatherDisplay:10.37,2013-03-18 09:19:00,
2013-03-18 04:24:00,32.4,29.5,29.70,ENE,69,7.2,8.1,89,0.01,OVC,,0.03,WeatherDisplay:10.37,2013-03-18 09:24:00,
2013-03-18 04:29:00,32.4,29.5,29.70,East,83,9.7,15.0,89,0.00,OVC,,0.03,WeatherDisplay:10.37,2013-03-18 09:29:00,
2013-03-18 04:34:00,32.4,29.5,29.71,East,90,6.4,6.4,89,0.00,OVC,,0.03,WeatherDisplay:10.37,2013-03-18 09:34:00,
2013-03-18 04:39:00,32.4,29.5,29.70,ENE,59,5.6,6.0,89,0.00,OVC,,0.03,WeatherDisplay:10.37,2013-03-18 09:39:00,
2013-03-18 04:44:00,32.5,30.7,29.69,ENE,67,11.4,16.1,93,0.00,OVC,,0.03,WeatherDisplay:10.37,2013-03-18 09:44:00,
2013-03-18 04:49:00,32.5,29.6,29.69,ENE,61,9.5,9.5,89,0.00,OVC,,0.03,WeatherDisplay:10.37,2013-03-18 09:49:00,
2013-03-18 04:54:00,32.5,29.6,29.69,East,79,6.9,11.5,89,0.00,OVC,,0.03,WeatherDisplay:10.37,2013-03-18 09:54:00,
2013-03-18 04:59:00,32.5,29.6,29.69,ENE,63,5.0,5.8,89,0.00,OVC,,0.03,WeatherDisplay:10.37,2013-03-18 09:59:00,
2013-03-18 05:04:00,32.5,29.9,29.69,East,82,6.2,6.2,90,0.00,OVC,,0.03,WeatherDisplay:10.37,2013-03-18 10:04:00,
2013-03-18 05:09:00,32.5,29.9,29.69,ENE,59,6.2,9.0,90,0.00,OVC,,0.03,WeatherDisplay:10.37,2013-03-18 10:09:00,
2013-03-18 05:14:00,32.5,29.9,29.68,East,83,3.5,4.6,90,0.00,OVC,,0.03,WeatherDisplay:10.37,2013-03-18 10:14:00,
2013-03-18 05:19:00,32.5,29.9,29.68,East,94,4.8,5.8,90,0.00,OVC,,0.03,WeatherDisplay:10.37,2013-03-18 10:19:00,
2013-03-18 05:24:00,32.5,29.9,29.68,ENE,76,5.0,8.1,90,0.00,OVC,,0.03,WeatherDisplay:10.37,2013-03-18 10:24:00,
2013-03-18 05:29:00,32.5,29.9,29.68,NE,49,7.6,7.6,90,0.00,OVC,,0.03,WeatherDisplay:10.37,2013-03-18 10:29:00,
2013-03-18 05:34:00,32.5,29.9,29.68,ENE,77,5.9,8.1,90,0.00,OVC,,0.03,WeatherDisplay:10.37,2013-03-18 10:34:00,
2013-03-18 05:39:00,32.7,30.1,29.68,ENE,63,6.5,8.1,90,0.00,OVC,,0.03,WeatherDisplay:10.37,2013-03-18 10:39:00,
2013-03-18 05:44:00,32.5,29.9,29.68,ENE,63,3.3,4.6,90,0.00,OVC,,0.03,WeatherDisplay:10.37,2013-03-18 10:44:00,
2013-03-18 05:49:00,32.7,30.1,29.68,ENE,60,9.0,10.4,90,0.00,OVC,,0.03,WeatherDisplay:10.37,2013-03-18 10:49:00,
2013-03-18 05:54:00,32.7,30.1,29.68,ENE,73,4.8,4.8,90,0.00,-RA,,0.03,WeatherDisplay:10.37,2013-03-18 10:54:00,
2013-03-18 05:59:00,32.7,30.1,29.68,ENE,78,8.6,9.2,90,0.00,-RA,,0.03,WeatherDisplay:10.37,2013-03-18 10:59:00,
2013-03-18 06:04:00,32.7,30.4,29.68,ENE,76,9.4,10.4,91,0.00,-RA,,0.03,WeatherDisplay:10.37,2013-03-18 11:04:00,
2013-03-18 06:09:00,32.7,30.4,29.67,ENE,76,9.3,10.4,91,0.00,-RA,,0.03,WeatherDisplay:10.37,2013-03-18 11:09:00,
2013-03-18 06:14:00,32.7,30.4,29.67,ENE,62,7.3,7.5,91,0.00,-SN,,0.03,WeatherDisplay:10.37,2013-03-18 11:14:00,
2013-03-18 06:19:00,32.8,30.5,29.67,ENE,61,8.2,9.2,91,0.00,-SN,,0.03,WeatherDisplay:10.37,2013-03-18 11:19:00,
2013-03-18 06:24:00,32.8,30.5,29.67,ENE,60,3.3,4.6,91,0.00,-SN,,0.03,WeatherDisplay:10.37,2013-03-18 11:24:00,
2013-03-18 06:29:00,32.8,30.5,29.67,NE,46,4.4,4.6,91,0.00,-SN,,0.03,WeatherDisplay:10.37,2013-03-18 11:29:00,
2013-03-18 06:34:00,32.9,30.6,29.66,East,101,9.3,11.5,91,0.00,-RA,,0.03,WeatherDisplay:10.37,2013-03-18 11:34:00,
2013-03-18 06:39:00,32.9,30.6,29.66,ENE,66,5.4,5.8,91,0.00,-RA,,0.03,WeatherDisplay:10.37,2013-03-18 11:39:00,
2013-03-18 06:44:00,32.9,30.6,29.66,ENE,66,5.1,5.8,91,0.00,-RA,,0.03,WeatherDisplay:10.37,2013-03-18 11:44:00,
2013-03-18 06:49:00,32.9,30.6,29.66,ENE,69,4.2,5.8,91,0.00,-RA,,0.03,WeatherDisplay:10.37,2013-03-18 11:49:00,
2013-03-18 06:54:00,33.1,30.8,29.66,ENE,65,6.9,8.1,91,0.00,OVC,,0.03,WeatherDisplay:10.37,2013-03-18 11:54:00,
2013-03-18 06:59:00,33.1,30.8,29.66,ENE,66,5.7,8.1,91,0.00,OVC,,0.04,WeatherDisplay:10.37,2013-03-18 11:59:00,
2013-03-18 07:04:00,33.1,30.8,29.66,East,88,3.5,5.8,91,0.01,RA,,0.04,WeatherDisplay:10.37,2013-03-18 12:04:00,
2013-03-18 07:09:00,33.1,30.8,29.66,ESE,103,4.4,4.6,91,0.01,RA,,0.04,WeatherDisplay:10.37,2013-03-18 12:09:00,
2013-03-18 07:14:00,33.1,30.8,29.65,ENE,59,7.5,7.5,91,0.01,OVC,,0.04,WeatherDisplay:10.37,2013-03-18 12:14:00,
2013-03-18 07:19:00,33.1,30.8,29.65,NE,55,4.1,6.0,91,0.01,OVC,,0.04,WeatherDisplay:10.37,2013-03-18 12:19:00,
2013-03-18 07:24:00,33.1,30.8,29.64,NNE,24,3.8,4.6,91,0.02,RA,,0.05,WeatherDisplay:10.37,2013-03-18 12:24:00,
2013-03-18 07:29:00,33.1,30.8,29.65,NE,51,2.3,4.6,91,0.02,RA,,0.05,WeatherDisplay:10.37,2013-03-18 12:29:00,
2013-03-18 07:34:00,33.1,30.8,29.65,ENE,76,3.0,8.1,91,0.02,OVC,,0.05,WeatherDisplay:10.37,2013-03-18 12:34:00,
2013-03-18 07:39:00,33.2,30.9,29.65,ENE,75,2.9,5.8,91,0.02,OVC,,0.05,WeatherDisplay:10.37,2013-03-18 12:39:00,
2013-03-18 07:44:00,33.2,30.9,29.64,ENE,62,5.8,5.8,91,0.02,OVC,,0.05,WeatherDisplay:10.37,2013-03-18 12:44:00,
2013-03-18 07:49:00,33.2,31.1,29.64,ENE,69,8.4,8.4,92,0.03,RA,,0.06,WeatherDisplay:10.37,2013-03-18 12:49:00,
2013-03-18 07:54:00,33.2,31.1,29.64,ESE,106,2.3,4.6,92,0.03,RA,,0.06,WeatherDisplay:10.37,2013-03-18 12:54:00,
2013-03-18 07:59:00,33.4,31.3,29.65,ESE,106,0.4,1.1,92,0.04,RA,,0.07,WeatherDisplay:10.37,2013-03-18 12:59:00,
2013-03-18 08:04:00,33.4,31.3,29.65,ENE,66,2.8,5.8,92,0.03,RA,,0.07,WeatherDisplay:10.37,2013-03-18 13:04:00,
2013-03-18 08:09:00,33.4,31.3,29.64,ENE,58,2.7,4.6,92,0.04,RA,,0.08,WeatherDisplay:10.37,2013-03-18 13:09:00,
2013-03-18 08:14:00,33.4,31.3,29.64,NE,52,4.5,4.6,92,0.04, +RA,,0.08,WeatherDisplay:10.37,2013-03-18 13:14:00,
2013-03-18 08:19:00,33.5,31.4,29.63,NE,52,3.9,4.6,92,0.04, +RA,,0.08,WeatherDisplay:10.37,2013-03-18 13:19:00,
2013-03-18 08:24:00,33.5,31.4,29.63,NE,51,4.5,4.5,92,0.03, +RA,,0.08,WeatherDisplay:10.37,2013-03-18 13:24:00,
2013-03-18 08:29:00,33.5,31.4,29.63,ENE,69,5.9,5.9,92,0.03, +RA,,0.08,WeatherDisplay:10.37,2013-03-18 13:29:00,
2013-03-18 08:34:00,33.7,31.6,29.63,ENE,78,0.5,5.8,92,0.03, +DZ,,0.09,WeatherDisplay:10.37,2013-03-18 13:34:00,
2013-03-18 08:39:00,33.8,31.7,29.63,ENE,78,1.5,3.5,92,0.04, +DZ,,0.09,WeatherDisplay:10.37,2013-03-18 13:39:00,
2013-03-18 08:44:00,33.8,31.7,29.62,ENE,78,2.2,4.5,92,0.04, +DZ,,0.09,WeatherDisplay:10.37,2013-03-18 13:44:00,
2013-03-18 08:49:00,34.0,31.9,29.63,ESE,120,3.6,4.6,92,0.03, +DZ,,0.09,WeatherDisplay:10.37,2013-03-18 13:49:00,
2013-03-18 08:54:00,34.0,31.9,29.62,ESE,120,3.3,3.5,92,0.03,OVC,,0.09,WeatherDisplay:10.37,2013-03-18 13:54:00,
2013-03-18 08:59:00,34.1,32.0,29.62,ESE,119,1.4,1.4,92,0.02,OVC,,0.09,WeatherDisplay:10.37,2013-03-18 13:59:00,
2013-03-18 09:04:00,34.3,32.2,29.62,ESE,119,3.0,3.5,92,0.02,OVC,,0.09,WeatherDisplay:10.37,2013-03-18 14:04:00,
2013-03-18 09:10:00,34.3,32.5,29.62,East,89,3.3,3.5,93,0.01,OVC,,0.09,WeatherDisplay:10.37,2013-03-18 14:10:00,
2013-03-18 09:15:00,34.4,32.3,29.61,ENE,59,4.8,8.1,92,0.01,-RA,,0.09,WeatherDisplay:10.37,2013-03-18 14:15:00,
2013-03-18 09:20:00,34.4,32.6,29.61,ENE,75,3.3,3.5,93,0.01,-RA,,0.09,WeatherDisplay:10.37,2013-03-18 14:20:00,
2013-03-18 09:25:00,34.4,32.6,29.61,NNE,16,0.2,5.8,93,0.01,-RA,,0.09,WeatherDisplay:10.37,2013-03-18 14:25:00,
2013-03-18 09:30:00,34.6,32.8,29.61,NNE,16,0.0,0.0,93,0.01,-RA,,0.09,WeatherDisplay:10.37,2013-03-18 14:30:00,
2013-03-18 09:35:00,34.7,32.9,29.60,NNE,16,1.9,3.5,93,0.01,OVC,,0.09,WeatherDisplay:10.37,2013-03-18 14:35:00,
2013-03-18 09:40:00,34.9,33.1,29.61,NNE,16,0.0,1.1,93,0.00,OVC,,0.09,WeatherDisplay:10.37,2013-03-18 14:40:00,
2013-03-18 09:45:00,34.9,33.1,29.61,NNE,16,1.9,3.5,93,0.00,OVC,,0.09,WeatherDisplay:10.37,2013-03-18 14:45:00,
2013-03-18 09:50:00,35.0,33.2,29.61,NE,48,1.6,3.0,93,0.00,OVC,,0.09,WeatherDisplay:10.37,2013-03-18 14:50:00,
2013-03-18 09:55:00,35.2,33.3,29.61,NE,39,3.0,3.0,93,0.00,OVC,,0.09,WeatherDisplay:10.37,2013-03-18 14:55:00,
2013-03-18 10:00:00,35.2,33.4,29.60,ENE,76,1.0,5.0,93,0.00,OVC,,0.09,WeatherDisplay:10.37,2013-03-18 15:00:00,
2013-03-18 10:05:00,35.3,33.5,29.60,ESE,114,2.0,5.0,93,0.00,OVC,,0.09,WeatherDisplay:10.37,2013-03-18 15:05:00,
2013-03-18 10:10:00,35.6,33.8,29.61,ESE,112,0.4,1.5,93,0.00,OVC,,0.09,WeatherDisplay:10.37,2013-03-18 15:10:00,
2013-03-18 10:15:00,35.8,34.0,29.61,SSE,161,3.8,4.6,93,0.00,OVC,,0.09,WeatherDisplay:10.37,2013-03-18 15:15:00,
2013-03-18 10:20:00,35.9,34.1,29.62,SSE,161,0.0,0.0,93,0.00,OVC,,0.09,WeatherDisplay:10.37,2013-03-18 15:20:00,
2013-03-18 10:25:00,35.9,34.1,29.62,SSE,157,2.0,5.0,93,0.00,OVC,,0.09,WeatherDisplay:10.37,2013-03-18 15:25:00,
2013-03-18 10:30:00,36.0,34.2,29.63,SSE,155,0.1,1.1,93,0.00,OVC,,0.09,WeatherDisplay:10.37,2013-03-18 15:30:00,
2013-03-18 10:35:00,36.0,34.2,29.62,SSE,155,0.0,0.0,93,0.00,OVC,,0.09,WeatherDisplay:10.37,2013-03-18 15:35:00,
2013-03-18 10:40:00,36.0,34.2,29.62,SSE,155,3.0,5.0,93,0.00,OVC,,0.09,WeatherDisplay:10.37,2013-03-18 15:40:00,
2013-03-18 10:45:00,36.2,34.4,29.61,SSE,155,2.0,5.0,93,0.00,OVC,,0.09,WeatherDisplay:10.37,2013-03-18 15:45:00,
2013-03-18 10:50:00,36.3,34.5,29.61,SSE,155,1.6,3.5,93,0.00,OVC,,0.09,WeatherDisplay:10.37,2013-03-18 15:50:00,
2013-03-18 10:55:00,36.5,34.7,29.61,SSE,155,1.0,6.0,93,0.00,OVC,,0.09,WeatherDisplay:10.37,2013-03-18 15:55:00,
2013-03-18 11:00:00,36.6,34.8,29.61,SSE,155,2.0,5.0,93,0.00,OVC,,0.09,WeatherDisplay:10.37,2013-03-18 16:00:00,
2013-03-18 11:05:00,36.8,35.0,29.61,SSE,155,0.0,3.0,93,0.00,OVC,,0.09,WeatherDisplay:10.37,2013-03-18 16:05:00,
2013-03-18 11:10:00,36.9,35.1,29.60,SSE,152,0.4,3.5,93,0.00,OVC,,0.09,WeatherDisplay:10.37,2013-03-18 16:10:00,
2013-03-18 11:15:00,36.9,35.1,29.60,SSE,152,0.7,1.5,93,0.00,OVC,,0.09,WeatherDisplay:10.37,2013-03-18 16:15:00,
2013-03-18 11:20:00,37.0,35.2,29.61,SSW,209,2.6,4.6,93,0.00,OVC,,0.09,WeatherDisplay:10.37,2013-03-18 16:20:00,
2013-03-18 11:25:00,37.2,35.4,29.61,SSW,201,3.0,5.0,93,0.00,OVC,,0.09,WeatherDisplay:10.37,2013-03-18 16:25:00,
2013-03-18 11:30:00,37.2,35.4,29.61,SSW,209,0.0,3.0,93,0.00,OVC,,0.09,WeatherDisplay:10.37,2013-03-18 16:30:00,
2013-03-18 11:35:00,37.3,35.5,29.61,South,187,2.0,5.0,93,0.00,OVC,,0.09,WeatherDisplay:10.37,2013-03-18 16:35:00,
2013-03-18 11:40:00,37.5,35.7,29.61,SSE,154,1.0,3.0,93,0.00,OVC,,0.09,WeatherDisplay:10.37,2013-03-18 16:40:00,
2013-03-18 11:45:00,37.5,35.7,29.60,SSE,164,5.0,6.0,93,0.00,OVC,,0.09,WeatherDisplay:10.37,2013-03-18 16:45:00,
2013-03-18 11:50:00,37.6,35.8,29.60,SSE,159,1.0,6.0,93,0.00,OVC,,0.09,WeatherDisplay:10.37,2013-03-18 16:50:00,
2013-03-18 11:55:00,37.8,36.0,29.60,SSE,150,1.0,5.0,93,0.00,OVC,,0.09,WeatherDisplay:10.37,2013-03-18 16:55:00,
2013-03-18 12:00:00,38.0,36.2,29.60,SSE,157,1.0,8.0,93,0.00,OVC,,0.09,WeatherDisplay:10.37,2013-03-18 17:00:00,
2013-03-18 12:05:00,38.0,36.2,29.60,SSE,164,0.0,3.0,93,0.00,OVC,,0.09,WeatherDisplay:10.37,2013-03-18 17:05:00,
2013-03-18 12:10:00,38.2,36.4,29.60,WSW,257,3.6,5.8,93,0.00,OVC,,0.09,WeatherDisplay:10.37,2013-03-18 17:10:00,
2013-03-18 12:15:00,38.5,36.7,29.60,WSW,250,1.6,3.5,93,0.00,OVC,,0.09,WeatherDisplay:10.37,2013-03-18 17:15:00,
2013-03-18 12:20:00,38.5,36.7,29.60,West,259,3.0,6.0,93,0.00,OVC,,0.09,WeatherDisplay:10.37,2013-03-18 17:20:00,
2013-03-18 12:25:00,38.5,36.7,29.60,WSW,257,5.0,11.0,93,0.00,OVC,,0.09,WeatherDisplay:10.37,2013-03-18 17:25:00,
2013-03-18 12:30:00,38.3,36.5,29.60,WSW,253,2.0,6.0,93,0.00,OVC,,0.09,WeatherDisplay:10.37,2013-03-18 17:30:00,
2013-03-18 12:35:00,38.3,36.5,29.59,West,266,7.0,9.0,93,0.00,OVC,,0.09,WeatherDisplay:10.37,2013-03-18 17:35:00,
2013-03-18 12:40:00,38.3,36.5,29.58,West,265,5.0,6.0,93,0.00,OVC,,0.09,WeatherDisplay:10.37,2013-03-18 17:40:00,
2013-03-18 12:45:00,38.3,36.5,29.61,SW,233,4.6,9.2,93,0.00,OVC,,0.09,WeatherDisplay:10.37,2013-03-18 17:45:00,
2013-03-18 12:50:00,38.2,36.4,29.61,WSW,248,7.0,14.0,93,0.00,OVC,,0.09,WeatherDisplay:10.37,2013-03-18 17:50:00,
2013-03-18 12:55:00,38.2,36.4,29.61,West,261,2.0,14.0,93,0.00,OVC,,0.09,WeatherDisplay:10.37,2013-03-18 17:55:00,
2013-03-18 13:00:00,38.0,36.2,29.62,WSW,238,10.2,10.4,93,0.00,OVC,,0.09,WeatherDisplay:10.37,2013-03-18 18:00:00,
2013-03-18 13:05:00,37.9,36.1,29.63,WSW,248,4.4,9.2,93,0.00,OVC,,0.09,WeatherDisplay:10.37,2013-03-18 18:05:00,
2013-03-18 13:10:00,37.9,36.1,29.63,WSW,241,3.0,8.0,93,0.00,OVC,,0.09,WeatherDisplay:10.37,2013-03-18 18:10:00,
2013-03-18 13:15:00,38.0,36.2,29.63,West,277,5.2,5.8,93,0.00,OVC,,0.09,WeatherDisplay:10.37,2013-03-18 18:15:00,
2013-03-18 13:20:00,37.8,36.0,29.63,WSW,241,7.9,15.0,93,0.00,OVC,,0.09,WeatherDisplay:10.37,2013-03-18 18:20:00,
2013-03-18 13:25:00,37.8,35.7,29.63,WSW,244,6.0,18.0,92,0.00,OVC,,0.09,WeatherDisplay:10.37,2013-03-18 18:25:00,
2013-03-18 13:30:00,37.6,35.5,29.62,WSW,245,16.0,21.0,92,0.00,OVC,,0.09,WeatherDisplay:10.37,2013-03-18 18:30:00,
2013-03-18 13:35:00,37.8,35.7,29.62,SW,231,8.2,10.4,92,0.00,OVC,,0.09,WeatherDisplay:10.37,2013-03-18 18:35:00,
2013-03-18 13:40:00,37.8,35.4,29.62,SW,235,7.2,10.4,91,0.00,OVC,,0.09,WeatherDisplay:10.37,2013-03-18 18:40:00,
2013-03-18 13:45:00,37.9,35.5,29.62,WSW,257,4.9,8.1,91,0.00,OVC,,0.09,WeatherDisplay:10.37,2013-03-18 18:45:00,
2013-03-18 13:50:00,37.9,35.5,29.62,SW,235,15.0,20.7,91,0.00,OVC,,0.09,WeatherDisplay:10.37,2013-03-18 18:50:00,
2013-03-18 13:55:00,37.9,35.2,29.62,WSW,254,12.5,19.6,90,0.00,OVC,,0.09,WeatherDisplay:10.37,2013-03-18 18:55:00,
2013-03-18 14:00:00,37.9,35.2,29.63,WSW,249,12.5,19.6,90,0.00,OVC,,0.09,WeatherDisplay:10.37,2013-03-18 19:00:00,
2013-03-18 14:05:00,37.9,34.9,29.63,SW,232,11.9,16.5,89,0.00,OVC,,0.09,WeatherDisplay:10.37,2013-03-18 19:05:00,
2013-03-18 14:10:00,38.0,35.0,29.63,West,260,4.3,9.2,89,0.00,OVC,,0.09,WeatherDisplay:10.37,2013-03-18 19:10:00,
2013-03-18 14:15:00,38.2,35.0,29.63,WSW,237,9.3,19.6,88,0.00,OVC,,0.09,WeatherDisplay:10.37,2013-03-18 19:15:00,
2013-03-18 14:20:00,38.3,35.1,29.63,WNW,285,2.4,5.8,88,0.00,OVC,,0.09,WeatherDisplay:10.37,2013-03-18 19:20:00,
2013-03-18 14:25:00,38.3,34.8,29.63,WSW,256,6.9,19.6,87,0.00,OVC,,0.09,WeatherDisplay:10.37,2013-03-18 19:25:00,
2013-03-18 14:30:00,38.3,34.5,29.63,SSW,207,5.3,11.5,86,0.00,OVC,,0.09,WeatherDisplay:10.37,2013-03-18 19:30:00,
2013-03-18 14:35:00,38.2,34.4,29.63,SE,124,4.3,18.4,86,0.00,OVC,,0.09,WeatherDisplay:10.37,2013-03-18 19:35:00,
2013-03-18 14:40:00,38.2,34.1,29.63,NW,308,13.8,19.6,85,0.00,OVC,,0.09,WeatherDisplay:10.37,2013-03-18 19:40:00,
2013-03-18 14:45:00,38.2,34.1,29.63,WNW,294,9.9,11.5,85,0.00,OVC,,0.09,WeatherDisplay:10.37,2013-03-18 19:45:00,
2013-03-18 14:50:00,38.2,34.1,29.63,WNW,302,16.6,19.6,85,0.00,OVC,,0.09,WeatherDisplay:10.37,2013-03-18 19:50:00,
2013-03-18 14:55:00,38.0,33.6,29.64,West,265,21.2,28.8,84,0.00,OVC,,0.09,WeatherDisplay:10.37,2013-03-18 19:55:00,
2013-03-18 15:00:00,38.0,33.6,29.64,WNW,296,6.6,19.5,84,0.00,OVC,,0.09,WeatherDisplay:10.37,2013-03-18 20:00:00,
2013-03-18 15:05:00,38.2,34.1,29.64,WSW,244,6.1,8.1,85,0.00,OVC,,0.09,WeatherDisplay:10.37,2013-03-18 20:05:00,
2013-03-18 15:10:00,38.2,34.1,29.64,SW,217,11.3,15.0,85,0.00,OVC,,0.09,WeatherDisplay:10.37,2013-03-18 20:10:00,
2013-03-18 15:15:00,38.0,33.6,29.64,West,267,18.3,19.6,84,0.00,OVC,,0.09,WeatherDisplay:10.37,2013-03-18 20:15:00,
2013-03-18 15:20:00,37.9,33.8,29.64,WSW,246,15.0,16.5,85,0.00,OVC,,0.09,WeatherDisplay:10.37,2013-03-18 20:20:00,
2013-03-18 15:25:00,38.0,33.9,29.65,WSW,242,6.9,16.1,85,0.00,OVC,,0.09,WeatherDisplay:10.37,2013-03-18 20:25:00,
2013-03-18 15:30:00,38.0,33.9,29.65,SW,227,15.1,23.0,85,0.00,OVC,,0.09,WeatherDisplay:10.37,2013-03-18 20:30:00,
2013-03-18 15:35:00,37.9,33.8,29.65,WSW,238,9.0,10.4,85,0.00,OVC,,0.09,WeatherDisplay:10.37,2013-03-18 20:35:00,
2013-03-18 15:40:00,37.8,33.7,29.65,SSW,210,13.8,15.0,85,0.00,OVC,,0.09,WeatherDisplay:10.37,2013-03-18 20:40:00,
2013-03-18 15:45:00,37.8,34.0,29.65,WSW,251,0.5,3.5,86,0.00,OVC,,0.09,WeatherDisplay:10.37,2013-03-18 20:45:00,
2013-03-18 15:50:00,37.8,34.3,29.65,WSW,247,10.7,10.7,87,0.00,OVC,,0.09,WeatherDisplay:10.37,2013-03-18 20:50:00,
2013-03-18 15:55:00,37.6,33.8,29.65,SW,217,14.5,18.4,86,0.00,OVC,,0.09,WeatherDisplay:10.37,2013-03-18 20:55:00,
2013-03-18 16:00:00,37.6,33.8,29.65,WSW,257,11.6,13.5,86,0.00,OVC,,0.09,WeatherDisplay:10.37,2013-03-18 21:00:00,
2013-03-18 16:05:00,37.8,33.7,29.66,West,264,7.3,19.6,85,0.00,OVC,,0.09,WeatherDisplay:10.37,2013-03-18 21:05:00,
2013-03-18 16:10:00,37.9,33.5,29.66,West,279,13.4,16.1,84,0.00,OVC,,0.09,WeatherDisplay:10.37,2013-03-18 21:10:00,
2013-03-18 16:15:00,38.0,33.6,29.66,SW,220,5.5,8.1,84,0.00,OVC,,0.09,WeatherDisplay:10.37,2013-03-18 21:15:00,
2013-03-18 16:20:00,38.3,34.2,29.66,WSW,252,7.4,18.4,85,0.00,OVC,,0.09,WeatherDisplay:10.37,2013-03-18 21:20:00,
2013-03-18 16:25:00,38.3,33.9,29.66,SSW,211,7.0,10.4,84,0.00,OVC,,0.09,WeatherDisplay:10.37,2013-03-18 21:25:00,
2013-03-18 16:30:00,38.3,33.9,29.67,NNW,338,12.7,16.1,84,0.00,OVC,,0.09,WeatherDisplay:10.37,2013-03-18 21:30:00,
2013-03-18 16:35:00,38.3,33.9,29.66,WNW,290,2.5,8.1,84,0.00,OVC,,0.09,WeatherDisplay:10.37,2013-03-18 21:35:00,
2013-03-18 16:40:00,38.5,34.1,29.67,WSW,240,7.4,10.4,84,0.00,OVC,,0.09,WeatherDisplay:10.37,2013-03-18 21:40:00,
2013-03-18 16:46:00,38.6,34.2,29.67,WNW,284,8.5,12.0,84,0.00,OVC,,0.09,WeatherDisplay:10.37,2013-03-18 21:46:00,
2013-03-18 16:51:00,38.8,34.1,29.67,West,261,9.3,11.5,83,0.00,OVC,,0.09,WeatherDisplay:10.37,2013-03-18 21:51:00,
2013-03-18 16:56:00,38.8,34.1,29.67,SW,236,10.5,16.1,83,0.00,OVC,,0.09,WeatherDisplay:10.37,2013-03-18 21:56:00,
2013-03-18 17:01:00,38.9,34.2,29.68,WSW,257,3.9,5.8,83,0.00,OVC,,0.09,WeatherDisplay:10.37,2013-03-18 22:01:00,
2013-03-18 17:06:00,38.9,34.2,29.68,West,278,4.5,5.8,83,0.00,OVC,,0.09,WeatherDisplay:10.37,2013-03-18 22:06:00,
2013-03-18 17:11:00,38.9,33.9,29.69,SSW,202,11.1,11.1,82,0.00,OVC,,0.09,WeatherDisplay:10.37,2013-03-18 22:11:00,
2013-03-18 17:16:00,39.1,34.1,29.69,SW,235,9.0,13.8,82,0.00,OVC,,0.09,WeatherDisplay:10.37,2013-03-18 22:16:00,
2013-03-18 17:21:00,39.1,34.1,29.69,WSW,240,16.2,16.2,82,0.00,OVC,,0.09,WeatherDisplay:10.37,2013-03-18 22:21:00,
2013-03-18 17:26:00,39.2,34.2,29.69,SW,225,14.6,15.0,82,0.00,OVC,,0.09,WeatherDisplay:10.37,2013-03-18 22:26:00,
2013-03-18 17:31:00,39.2,33.9,29.69,WSW,251,12.0,13.8,81,0.00,OVC,,0.09,WeatherDisplay:10.37,2013-03-18 22:31:00,
2013-03-18 17:36:00,39.2,33.9,29.69,WSW,248,14.4,20.7,81,0.00,OVC,,0.09,WeatherDisplay:10.37,2013-03-18 22:36:00,
2013-03-18 17:42:00,39.1,33.8,29.69,WNW,288,8.9,19.6,81,0.00,OVC,,0.09,WeatherDisplay:10.37,2013-03-18 22:42:00,
2013-03-18 17:47:00,39.1,33.8,29.69,West,275,19.5,20.7,81,0.00,OVC,,0.09,WeatherDisplay:10.37,2013-03-18 22:47:00,
2013-03-18 17:52:00,39.1,33.8,29.70,West,261,10.1,10.4,81,0.00,OVC,,0.09,WeatherDisplay:10.37,2013-03-18 22:52:00,
2013-03-18 17:57:00,39.1,33.8,29.70,SW,215,7.5,24.2,81,0.00,OVC,,0.09,WeatherDisplay:10.37,2013-03-18 22:57:00,
2013-03-18 18:02:00,39.1,33.8,29.70,WSW,245,20.4,25.3,81,0.00,OVC,,0.09,WeatherDisplay:10.37,2013-03-18 23:02:00,
2013-03-18 18:07:00,39.1,33.8,29.71,NW,312,9.1,16.1,81,0.00,OVC,,0.09,WeatherDisplay:10.37,2013-03-18 23:07:00,
2013-03-18 18:12:00,38.9,33.6,29.71,SW,224,16.1,19.6,81,0.00,OVC,,0.09,WeatherDisplay:10.37,2013-03-18 23:12:00,
2013-03-18 18:17:00,38.9,33.6,29.71,SW,226,9.8,16.1,81,0.00,OVC,,0.09,WeatherDisplay:10.37,2013-03-18 23:17:00,
2013-03-18 18:22:00,38.8,33.2,29.71,WSW,248,14.1,18.4,80,0.00,OVC,,0.09,WeatherDisplay:10.37,2013-03-18 23:22:00,
2013-03-18 18:27:00,38.8,33.2,29.72,WSW,252,12.0,19.6,80,0.00,OVC,,0.09,WeatherDisplay:10.37,2013-03-18 23:27:00,
2013-03-18 18:32:00,38.9,32.9,29.72,SW,221,7.1,10.4,79,0.00,OVC,,0.09,WeatherDisplay:10.37,2013-03-18 23:32:00,
2013-03-18 18:37:00,38.9,33.3,29.72,WNW,284,2.4,6.0,80,0.00,OVC,,0.09,WeatherDisplay:10.37,2013-03-18 23:37:00,
2013-03-18 18:42:00,38.9,32.9,29.72,WSW,246,3.9,19.6,79,0.00,OVC,,0.09,WeatherDisplay:10.37,2013-03-18 23:42:00,
2013-03-18 18:47:00,38.9,32.9,29.72,SW,234,3.1,8.1,79,0.00,OVC,,0.09,WeatherDisplay:10.37,2013-03-18 23:47:00,
2013-03-18 18:52:00,38.8,32.8,29.72,West,276,6.4,6.4,79,0.00,OVC,,0.09,WeatherDisplay:10.37,2013-03-18 23:52:00,
2013-03-18 18:57:00,38.6,32.6,29.72,SW,235,1.2,5.8,79,0.00,OVC,,0.09,WeatherDisplay:10.37,2013-03-18 23:57:00,
2013-03-18 19:02:00,38.5,32.9,29.73,SW,216,2.5,4.6,80,0.00,OVC,,0.09,WeatherDisplay:10.37,2013-03-19 00:02:00,
2013-03-18 19:07:00,38.2,32.6,29.73,WSW,239,1.3,3.5,80,0.00,OVC,,0.09,WeatherDisplay:10.37,2013-03-19 00:07:00,
2013-03-18 19:12:00,38.0,32.7,29.74,West,261,1.3,3.5,81,0.00,BKN,,0.09,WeatherDisplay:10.37,2013-03-19 00:12:00,
2013-03-18 19:17:00,37.9,32.6,29.74,WSW,248,0.1,1.5,81,0.00,BKN,,0.09,WeatherDisplay:10.37,2013-03-19 00:17:00,
2013-03-18 19:23:00,37.9,32.9,29.74,SSW,197,2.0,6.0,82,0.00,BKN,,0.09,WeatherDisplay:10.37,2013-03-19 00:23:00,
2013-03-18 19:28:00,37.9,32.9,29.74,WSW,242,1.6,3.5,82,0.00,BKN,,0.09,WeatherDisplay:10.37,2013-03-19 00:28:00,
2013-03-18 19:33:00,37.8,32.8,29.74,WSW,242,1.2,3.5,82,0.00,BKN,,0.09,WeatherDisplay:10.37,2013-03-19 00:33:00,
2013-03-18 19:38:00,37.8,32.8,29.75,WSW,242,0.7,3.5,82,0.00,BKN,,0.09,WeatherDisplay:10.37,2013-03-19 00:38:00,
2013-03-18 19:43:00,37.8,32.8,29.75,WSW,244,2.7,5.8,82,0.00,BKN,,0.09,WeatherDisplay:10.37,2013-03-19 00:43:00,
2013-03-18 19:48:00,37.6,32.6,29.75,WSW,241,0.4,1.5,82,0.00,BKN,,0.09,WeatherDisplay:10.37,2013-03-19 00:48:00,
2013-03-18 19:53:00,37.6,32.9,29.75,WSW,244,0.2,1.1,83,0.00,BKN,,0.09,WeatherDisplay:10.37,2013-03-19 00:53:00,
2013-03-18 19:58:00,37.6,32.9,29.75,WSW,242,0.0,0.0,83,0.00,BKN,,0.09,WeatherDisplay:10.37,2013-03-19 00:58:00,
2013-03-18 20:03:00,37.6,32.9,29.75,WSW,242,1.5,3.5,83,0.00,BKN,,0.09,WeatherDisplay:10.37,2013-03-19 01:03:00,
2013-03-18 20:08:00,37.8,33.1,29.76,WSW,242,4.1,4.6,83,0.00,BKN,,0.09,WeatherDisplay:10.37,2013-03-19 01:08:00,
2013-03-18 20:13:00,37.8,33.1,29.76,WNW,292,3.2,3.5,83,0.00,OVC,,0.09,WeatherDisplay:10.37,2013-03-19 01:13:00,
2013-03-18 20:18:00,37.9,33.2,29.76,WNW,292,0.0,1.5,83,0.00,OVC,,0.09,WeatherDisplay:10.37,2013-03-19 01:18:00,
2013-03-18 20:23:00,37.9,33.2,29.77,WSW,251,3.1,5.8,83,0.00,OVC,,0.09,WeatherDisplay:10.37,2013-03-19 01:23:00,
2013-03-18 20:28:00,37.9,33.2,29.77,WSW,257,0.9,3.0,83,0.00,OVC,,0.09,WeatherDisplay:10.37,2013-03-19 01:28:00,
2013-03-18 20:33:00,37.9,33.2,29.77,WSW,241,2.2,6.0,83,0.00,OVC,,0.09,WeatherDisplay:10.37,2013-03-19 01:33:00,
2013-03-18 20:38:00,37.6,32.0,29.78,WNW,289,13.0,18.4,80,0.00,OVC,,0.09,WeatherDisplay:10.37,2013-03-19 01:38:00,
2013-03-18 20:43:00,36.6,30.1,29.79,West,269,12.0,12.0,77,0.00,OVC,,0.09,WeatherDisplay:10.37,2013-03-19 01:43:00,
2013-03-18 20:48:00,36.0,29.2,29.80,WSW,258,13.7,18.4,76,0.00,OVC,,0.09,WeatherDisplay:10.37,2013-03-19 01:48:00,
2013-03-18 20:53:00,35.2,27.7,29.80,NW,312,8.3,10.4,74,0.00,OVC,,0.09,WeatherDisplay:10.37,2013-03-19 01:53:00,
2013-03-18 20:58:00,34.3,26.5,29.80,ENE,61,18.3,25.3,73,0.00,OVC,,0.09,WeatherDisplay:10.37,2013-03-19 01:58:00,
2013-03-18 21:03:00,33.5,25.4,29.81,WSW,243,10.3,13.8,72,0.00,OVC,,0.09,WeatherDisplay:10.37,2013-03-19 02:03:00,
2013-03-18 21:08:00,33.1,25.4,29.81,WSW,238,8.1,16.5,73,0.00,OVC,,0.09,WeatherDisplay:10.37,2013-03-19 02:08:00,
2013-03-18 21:13:00,32.8,25.1,29.81,WNW,294,9.5,16.1,73,0.00,BKN,,0.09,WeatherDisplay:10.37,2013-03-19 02:13:00,
2013-03-18 21:18:00,32.5,25.1,29.82,WNW,286,6.9,10.4,74,0.00,BKN,,0.09,WeatherDisplay:10.37,2013-03-19 02:18:00,
2013-03-18 21:23:00,32.2,24.8,29.82,WSW,257,4.5,7.5,74,0.00,BKN,,0.09,WeatherDisplay:10.37,2013-03-19 02:23:00,
2013-03-18 21:28:00,32.1,24.7,29.82,West,264,12.4,12.4,74,0.00,BKN,,0.09,WeatherDisplay:10.37,2013-03-19 02:28:00,
2013-03-18 21:33:00,31.9,24.6,29.82,West,267,4.8,13.8,74,0.00,BKN,,0.09,WeatherDisplay:10.37,2013-03-19 02:33:00,
2013-03-18 21:38:00,31.8,24.5,29.83,WSW,250,5.2,8.1,74,0.00,BKN,,0.09,WeatherDisplay:10.37,2013-03-19 02:38:00,
2013-03-18 21:43:00,31.5,24.5,29.83,WNW,283,9.2,9.2,75,0.00,BKN,,0.09,WeatherDisplay:10.37,2013-03-19 02:43:00,
2013-03-18 21:48:00,31.3,24.0,29.83,WNW,290,8.5,10.4,74,0.00,BKN,,0.09,WeatherDisplay:10.37,2013-03-19 02:48:00,
2013-03-18 21:53:00,31.0,23.7,29.83,WNW,292,4.6,4.6,74,0.00,SCT,,0.09,WeatherDisplay:10.37,2013-03-19 02:53:00,
2013-03-18 21:58:00,30.9,23.9,29.84,WSW,237,9.8,10.4,75,0.00,SCT,,0.09,WeatherDisplay:10.37,2013-03-19 02:58:00,
2013-03-18 22:03:00,30.7,23.7,29.83,SW,230,6.9,18.0,75,0.00,SCT,,0.09,WeatherDisplay:10.37,2013-03-19 03:03:00,
2013-03-18 22:08:00,30.6,23.6,29.83,WNW,300,5.1,10.4,75,0.00,SCT,,0.09,WeatherDisplay:10.37,2013-03-19 03:08:00,
2013-03-18 22:13:00,30.4,23.4,29.84,WSW,252,5.1,8.1,75,0.00,CLR,,0.09,WeatherDisplay:10.37,2013-03-19 03:13:00,
2013-03-18 22:18:00,30.4,23.1,29.84,WNW,284,13.8,24.2,74,0.00,CLR,,0.09,WeatherDisplay:10.37,2013-03-19 03:18:00,
2013-03-18 22:23:00,30.3,22.0,29.85,WSW,238,17.6,24.2,71,0.00,CLR,,0.09,WeatherDisplay:10.37,2013-03-19 03:23:00,
2013-03-18 22:28:00,30.1,21.5,29.85,West,274,6.4,21.0,70,0.00,CLR,,0.09,WeatherDisplay:10.37,2013-03-19 03:28:00,
2013-03-18 22:33:00,30.1,21.8,29.86,West,270,7.4,10.4,71,0.00,SCT,,0.09,WeatherDisplay:10.37,2013-03-19 03:33:00,
2013-03-18 22:38:00,29.8,21.9,29.86,NNW,337,18.1,18.1,72,0.00,SCT,,0.09,WeatherDisplay:10.37,2013-03-19 03:38:00,
2013-03-18 22:43:00,29.4,21.2,29.86,WNW,292,8.4,13.8,71,0.00,SCT,,0.09,WeatherDisplay:10.37,2013-03-19 03:43:00,
2013-03-18 22:48:00,29.1,21.2,29.86,WNW,301,8.1,10.5,72,0.00,SCT,,0.09,WeatherDisplay:10.37,2013-03-19 03:48:00,
2013-03-18 22:53:00,28.8,20.9,29.86,WNW,302,8.5,8.5,72,0.00,SCT,,0.09,WeatherDisplay:10.37,2013-03-19 03:53:00,
2013-03-18 22:58:00,28.7,20.8,29.87,WSW,238,16.0,16.0,72,0.00,SCT,,0.09,WeatherDisplay:10.37,2013-03-19 03:58:00,
2013-03-18 23:00:00,28.7,20.8,29.87,West,270,16.0,20.0,72,0.00,SCT,,0.09,WeatherDisplay:10.37,2013-03-19 04:00:00,
2013-03-18 23:05:00,28.7,20.8,29.87,West,279,7.0,9.2,72,0.00,SCT,,0.09,WeatherDisplay:10.37,2013-03-19 04:05:00,
2013-03-18 23:10:00,28.5,20.6,29.87,WSW,242,2.6,15.0,72,0.00,SCT,,0.09,WeatherDisplay:10.37,2013-03-19 04:10:00,
2013-03-18 23:15:00,28.2,19.3,29.87,West,270,6.9,8.1,69,0.00,CLR,,0.09,WeatherDisplay:10.37,2013-03-19 04:15:00,
2013-03-18 23:20:00,28.1,18.9,29.87,SW,221,15.5,16.1,68,0.00,CLR,,0.09,WeatherDisplay:10.37,2013-03-19 04:20:00,
2013-03-18 23:25:00,27.9,19.0,29.87,WNW,288,11.9,18.4,69,0.00,CLR,,0.09,WeatherDisplay:10.37,2013-03-19 04:25:00,
2013-03-18 23:30:00,27.6,18.8,29.88,WSW,252,12.8,20.7,69,0.00,SCT,,0.09,WeatherDisplay:10.37,2013-03-19 04:30:00,
2013-03-18 23:36:00,27.3,18.1,29.88,West,271,12.6,15.0,68,0.00,SCT,,0.09,WeatherDisplay:10.37,2013-03-19 04:36:00,
2013-03-18 23:41:00,27.2,17.7,29.88,WSW,255,10.4,15.0,67,0.00,SCT,,0.09,WeatherDisplay:10.37,2013-03-19 04:41:00,
2013-03-18 23:46:00,27.0,17.8,29.88,WSW,248,2.3,4.6,68,0.00,SCT,,0.09,WeatherDisplay:10.37,2013-03-19 04:46:00,
2013-03-18 23:51:00,26.9,18.1,29.88,WSW,250,17.1,20.7,69,0.00,SCT,,0.09,WeatherDisplay:10.37,2013-03-19 04:51:00,
2013-03-18 23:56:00,26.9,17.7,29.88,West,261,9.8,9.8,68,0.00,SCT,,0.09,WeatherDisplay:10.37,2013-03-19 04:56:00,